Location: Unspecified
(47.5840°N, 122.3000°W)
Time: 18:24:13
(UTC+00:00)

IRIDIUM 114 - Pass Details

Date: 23 March 2026
Orbit: 776 x 779 km, 86.4° (Epoch: 14 April)

Event Time Altitude Azimuth Distance (km) Brightness Sun altitude
Exits shadow 04:45:30 22° 191° (S) 1,639 5.8 -23.4°
Maximum altitude 04:48:53 76° 274° (W) 806 4.4 -23.8°
Drops below altitude 10° 04:54:09 10° 1° (N) 2,341 7.2 -24.6°
Sets 04:56:31 0° 3° (N) 3,273 8.0 -24.9°
